Home   Weather   Barcelona Summit   Past weeks
Flag for USA

Past Weather in Barcelona Summit, Nevada, USA — Yesterday and Last 2 Weeks

Now
55 °F

Sunny.


Feels Like: 55 °F
Forecast: 75 / 37 °F
Wind: No wind

Location: Reno Tahoe International Airport
Current Time: Oct 20, 2020 at 11:19:11 am
Latest Report: Oct 20, 2020 at 9:55 am
Visibility: 10 mi
Pressure30.09 "Hg
Humidity: 35%
Dew Point: 28 °F
Location of Barcelona SummitLocation

Past Weather in Barcelona Summit — Graph

°F

Barcelona Summit Temperature Yesterday

Maximum temperature yesterday: 78 °F (at 2:55 pm)
Minimum temperature yesterday: 44 °F (at 5:55 am)
Average temperature yesterday: 60 °F

High & Low Weather Summary for the Past Weeks

 TemperatureHumidityPressure
High84 °F (Oct 5, 2:55 pm)73% (Oct 12, 6:55 am)30.37 "Hg (Oct 12, 6:55 am)
Low41 °F (Oct 17, 6:55 am)6% (Oct 7, 4:55 pm)29.81 "Hg (Oct 9, 4:55 pm)
Average60 °F34%30.08 "Hg
* Reported Oct 5 9:55 am — Oct 20 9:55 am, Barcelona Summit. Weather by CustomWeather, © 2020

Note: Actual official high and low records may vary slightly from our data, if they occured in-between our weather recording intervals... More about our weather records

Barcelona Summit Weather History for the Previous 24 Hours

Scroll right to see more
 ConditionsComfort  
Time TempWeatherWind HumidityBarometerVisibility
9:55 am
Tue, Oct 20
55 °FSunny.No wind35%30.09 "Hg10 mi
8:55 am47 °FSunny.3 mph50%30.11 "Hg10 mi
7:55 am42 °FSunny.3 mph57%30.11 "Hg10 mi
6:55 am42 °FClear.No wind62%30.10 "Hg10 mi
5:55 am41 °FClear.3 mph60%30.08 "Hg10 mi
4:55 am43 °FClear.No wind58%30.06 "Hg10 mi
3:55 am43 °FClear.No wind53%30.07 "Hg10 mi
2:55 am47 °FClear.No wind50%30.06 "Hg10 mi
1:55 am45 °FClear.No wind53%30.06 "Hg10 mi
12:55 am51 °FClear.3 mph36%30.06 "Hg10 mi
11:55 pm
Mon, Oct 19
52 °FClear.No wind40%30.06 "Hg10 mi
10:55 pm55 °FClear.No wind35%30.06 "Hg10 mi
9:55 pm59 °FClear.8 mph28%30.05 "Hg10 mi
8:55 pm62 °FClear.3 mph26%30.05 "Hg10 mi
7:55 pm64 °FClear.6 mph22%30.05 "Hg10 mi
6:55 pm68 °FPassing clouds.5 mph16%30.03 "Hg10 mi
5:55 pm74 °FPassing clouds.10 mph16%30.01 "Hg10 mi
4:55 pm77 °FPassing clouds.7 mph16%29.99 "Hg10 mi
3:55 pm77 °FPassing clouds.7 mph17%30.00 "Hg10 mi
2:55 pm78 °FPassing clouds.7 mph16%30.01 "Hg10 mi
1:55 pm76 °FSunny.No wind16%30.03 "Hg10 mi
12:55 pm73 °FSunny.6 mph20%30.06 "Hg10 mi
11:55 am67 °FSunny.3 mph25%30.08 "Hg10 mi
Weather by CustomWeather, © 2020

See weather overview